FW9555 Weather Reports


Display with metric or nautical units.
time (UTC)temp
F
wind
direction
speed
MPH
gust
MPH
rain 1hr
in
rain 24hr
in
rain mn
in
humidity
%
barometer
mb
20260905100618 73 0 1.0 1.0 0.00 0.00 0.00 99 1016.3
20260905100113 73 306 0.0 0.0 0.00 0.00 0.00 99 1016.2
20260905095607 73 306 0.0 0.0 0.00 0.00 0.00 99 1016.1
20260905095102 73 306 0.0 0.0 0.00 0.00 0.00 99 1016.3
20260905094558 73 352 0.0 0.0 0.00 0.00 0.00 99 1016.3
20260905094057 73 353 0.0 1.0 0.00 0.00 0.00 99 1016.1
20260905093556 73 0 0.0 0.0 0.00 0.00 0.00 99 1016.4
20260905093053 73 0 0.0 0.0 0.00 0.00 0.00 99 1016.0
20260905092553 73 0 0.0 0.0 0.00 0.00 0.00 99 1016.2
20260905092049 73 0 0.0 0.0 0.00 0.00 0.00 99 1016.4
20260905091548 73 0 0.0 0.0 0.00 0.00 0.00 99 1016.0
20260905091043 73 0 0.0 0.0 0.00 0.00 0.00 99 1016.4
20260905090542 73 0 0.0 0.0 0.00 0.00 0.00 99 1016.2
20260905090038 73 0 0.0 0.0 0.00 0.00 0.00 99 1016.2
20260905085536 73 48 0.0 0.0 0.00 0.00 0.00 99 1016.3
20260905085032 73 48 0.0 0.0 0.00 0.00 0.00 99 1016.3
20260905084526 74 0 0.0 0.0 0.00 0.00 0.00 99 1016.2
20260905084021 74 0 0.0 0.0 0.00 0.00 0.00 99 1016.3
20260905083516 74 23 0.0 0.0 0.00 0.00 0.00 99 1016.2
20260905083013 74 0 0.0 1.0 0.00 0.00 0.00 99 1016.3
20260905082508 74 346 0.0 0.0 0.00 0.00 0.00 99 1016.3
20260905082003 74 346 0.0 0.0 0.00 0.00 0.00 99 1016.6
20260905081457 73 0 0.0 0.0 0.00 0.00 0.00 99 1016.6
20260905080957 74 0 0.0 0.0 0.00 0.00 0.00 99 1016.5
20260905080452 74 0 0.0 0.0 0.00 0.00 0.00 99 1016.6
20260905075950 74 0 0.0 0.0 0.00 0.00 0.00 99 1016.8
20260905075445 74 0 0.0 0.0 0.00 0.00 0.00 99 1016.7
20260905074944 74 0 0.0 0.0 0.00 0.00 0.00 99 1016.6
20260905074440 74 0 0.0 0.0 0.00 0.00 0.00 99 1016.7
20260905073935 74 345 0.0 0.0 0.00 0.00 0.00 99 1016.9
20260905073430 74 352 0.0 0.0 0.00 0.00 0.00 99 1017.0
20260905072926 74 352 0.0 0.0 0.00 0.00 0.00 99 1016.8
20260905072420 75 77 0.0 2.0 0.00 0.00 0.00 99 1016.8
20260905071917 75 15 0.0 1.0 0.00 0.00 0.00 99 1016.8
20260905071414 74 66 0.0 0.0 0.00 0.00 0.00 99 1016.8
20260905070912 75 66 0.0 0.0 0.00 0.00 0.00 99 1017.0
20260905070409 74 66 0.0 0.0 0.00 0.00 0.00 99 1017.0
20260905065909 75 66 0.0 0.0 0.00 0.00 0.00 99 1016.9
20260905065407 75 66 0.0 0.0 0.00 0.00 0.00 99 1017.0
20260905064902 75 66 0.0 0.0 0.00 0.00 0.00 99 1016.9
20260905064357 75 66 0.0 0.0 0.00 0.00 0.00 99 1017.2
20260905063856 75 66 0.0 0.0 0.00 0.00 0.00 99 1017.3
20260905063352 75 57 0.0 2.0 0.00 0.00 0.00 99 1017.4
20260905062848 75 289 0.0 0.0 0.00 0.00 0.00 98 1017.2
20260905062342 75 289 0.0 1.0 0.00 0.00 0.00 98 1017.5
20260905061837 75 352 0.0 0.0 0.00 0.00 0.00 98 1017.5
20260905061332 75 40 0.0 0.0 0.00 0.00 0.00 98 1017.6
20260905060826 75 40 0.0 0.0 0.00 0.00 0.00 98 1017.7
20260905060323 76 40 0.0 0.0 0.00 0.00 0.00 98 1017.6
20260905055822 75 40 0.0 0.0 0.00 0.00 0.00 98 1017.8
20260905055317 75 40 0.0 0.0 0.00 0.00 0.00 98 1017.6
20260905054816 75 40 0.0 2.0 0.00 0.00 0.00 98 1017.8
20260905054313 75 345 0.0 0.0 0.00 0.00 0.00 98 1017.7
20260905053812 76 345 0.0 0.0 0.00 0.00 0.00 98 1017.8
20260905053308 76 345 0.0 0.0 0.00 0.00 0.00 98 1017.9
20260905052807 76 345 0.0 0.0 0.00 0.00 0.00 98 1017.9
20260905052306 76 345 0.0 0.0 0.00 0.00 0.00 98 1017.9
20260905051802 76 345 0.0 0.0 0.00 0.00 0.00 98 1018.0
20260905051258 76 98 0.0 0.0 0.00 0.00 0.00 98 1018.1
20260905050754 76 98 0.0 0.0 0.00 0.00 0.00 98 1018.3
20260905050251 76 98 0.0 0.0 0.00 0.00 0.00 98 1018.2
20260905045745 76 45 0.0 2.0 0.00 0.00 0.00 97 1018.2
20260905045240 76 270 0.0 0.0 0.00 0.00 0.00 97 1017.9
20260905044736 76 270 0.0 0.0 0.00 0.00 0.00 97 1018.0
20260905044231 76 15 0.0 0.0 0.00 0.00 0.00 97 1018.1
20260905043729 76 15 0.0 0.0 0.00 0.00 0.00 97 1018.4
20260905043224 76 15 0.0 0.0 0.00 0.00 0.00 97 1018.4
20260905042719 77 15 0.0 0.0 0.00 0.00 0.00 97 1018.2
20260905042218 77 15 0.0 0.0 0.00 0.00 0.00 97 1018.0
20260905041714 77 15 0.0 1.0 0.00 0.00 0.00 96 1017.9
20260905041209 77 65 0.0 0.0 0.00 0.00 0.00 96 1017.9
20260905040704 77 325 0.0 0.0 0.00 0.00 0.00 95 1018.0
20260905040202 77 325 0.0 0.0 0.00 0.00 0.00 95 1017.9
20260905035657 77 325 0.0 0.0 0.00 0.00 0.00 95 1017.8
20260905035154 77 325 0.0 0.0 0.00 0.00 0.00 95 1017.8
20260905034649 77 325 0.0 0.0 0.00 0.00 0.00 95 1017.8
20260905034149 77 325 0.0 0.0 0.00 0.00 0.00 95 1017.9
20260905033648 78 325 0.0 0.0 0.00 0.00 0.00 94 1018.0
20260905033144 78 325 0.0 0.0 0.00 0.00 0.00 94 1017.8
20260905032644 78 325 0.0 0.0 0.00 0.00 0.00 94 1017.8
20260905032138 78 325 0.0 0.0 0.00 0.00 0.00 93 1017.6
20260905031634 78 325 0.0 0.0 0.00 0.00 0.00 93 1017.6
20260905031129 78 325 0.0 0.0 0.00 0.00 0.00 93 1017.7
20260905030624 78 325 0.0 0.0 0.00 0.00 0.00 92 1017.7
20260905030120 78 325 0.0 0.0 0.00 0.00 0.00 92 1017.6
20260905025614 78 325 0.0 0.0 0.00 0.00 0.00 92 1017.7
20260905025110 78 325 0.0 0.0 0.00 0.00 0.00 92 1018.0
20260905024606 79 325 0.0 0.0 0.00 0.00 0.00 92 1018.2
20260905024101 79 325 0.0 0.0 0.00 0.00 0.00 92 1018.1
20260905023555 79 325 0.0 0.0 0.00 0.00 0.00 91 1018.1
20260905023050 79 325 0.0 0.0 0.00 0.00 0.00 91 1018.0
20260905022549 79 325 0.0 0.0 0.00 0.00 0.00 91 1017.9
20260905022045 79 325 0.0 0.0 0.00 0.00 0.00 91 1018.0
20260905021544 79 325 0.0 0.0 0.00 0.00 0.00 90 1017.8
20260905021040 80 325 0.0 0.0 0.00 0.00 0.00 90 1017.8
20260905020539 80 325 0.0 0.0 0.00 0.00 0.00 90 1017.7
20260905020035 80 325 0.0 0.0 0.00 0.00 0.00 89 1017.7
20260905015532 80 325 0.0 2.0 0.00 0.00 0.00 90 1018.0
20260905015027 80 306 0.0 1.0 0.00 0.00 0.00 90 1017.8
20260905014522 80 279 0.0 0.0 0.00 0.00 0.00 89 1017.8
20260905014018 80 279 0.0 0.0 0.00 0.00 0.00 89 1017.6
20260905013514 80 286 0.0 0.0 0.00 0.00 0.00 89 1017.8
20260905013010 80 286 0.0 0.0 0.00 0.00 0.00 88 1017.4
20260905012504 80 286 0.0 1.0 0.00 0.00 0.00 87 1017.6
20260905012001 81 279 0.0 0.0 0.00 0.00 0.00 87 1017.7
20260905011456 81 279 0.0 0.0 0.00 0.00 0.00 87 1017.7
20260905010952 81 279 0.0 0.0 0.00 0.00 0.00 86 1017.4
20260905010452 81 279 0.0 0.0 0.00 0.00 0.00 86 1017.7
20260905005948 82 279 0.0 0.0 0.00 0.00 0.00 85 1017.5
20260905005443 82 279 0.0 0.0 0.00 0.00 0.00 84 1017.3
20260905004938 82 279 0.0 0.0 0.00 0.00 0.00 84 1017.6
20260905004433 82 279 0.0 0.0 0.00 0.00 0.00 83 1017.6
20260905003928 82 279 0.0 0.0 0.00 0.00 0.00 82 1017.6
20260905003425 83 279 0.0 0.0 0.00 0.00 0.00 82 1017.5
20260905002920 83 279 0.0 0.0 0.00 0.00 0.00 82 1017.7
20260905002419 84 279 0.0 0.0 0.00 0.00 0.00 81 1017.6
20260905001913 84 279 0.0 0.0 0.00 0.00 0.00 79 1017.7
20260905001409 84 279 0.0 0.0 0.00 0.00 0.00 79 1017.6
20260905000903 85 279 0.0 0.0 0.00 0.00 0.00 77 1017.9
20260905000359 85 279 0.0 0.0 0.00 0.00 0.00 76 1017.7
20260904235854 85 279 0.0 0.0 0.00 0.00 0.00 76 1017.6
20260904235350 86 279 0.0 0.0 0.00 0.00 0.00 75 1017.4
20260904234850 87 279 0.0 0.0 0.00 0.00 0.00 74 1017.3
20260904234344 87 279 0.0 0.0 0.00 0.00 0.00 74 1017.4
20260904233840 88 279 0.0 0.0 0.00 0.00 0.00 72 1017.4
20260904233336 89 279 0.0 0.0 0.00 0.00 0.00 70 1017.3
20260904232833 89 279 0.0 0.0 0.00 0.00 0.00 70 1017.2
20260904232329 90 279 0.0 0.0 0.00 0.00 0.00 68 1017.0
20260904231824 91 279 0.0 0.0 0.00 0.00 0.00 68 1017.1
20260904231319 91 279 0.0 0.0 0.00 0.00 0.00 65 1017.1
20260904230814 92 279 0.0 0.0 0.00 0.00 0.00 65 1017.0
20260904230312 94 279 0.0 0.0 0.00 0.00 0.00 61 1016.8
20260904225808 96 279 0.0 0.0 0.00 0.00 0.00 58 1016.9
20260904225301 97 297 0.0 0.0 0.00 0.00 0.00 54 1016.8
20260904224800 100 279 0.0 1.0 0.00 0.00 0.00 52 1016.9
20260904224256 98 334 0.0 0.0 0.00 0.00 0.00 54 1016.8
20260904223755 98 0 0.0 0.0 0.00 0.00 0.00 53 1016.8
20260904223250 99 294 0.0 0.0 0.00 0.00 0.00 55 1017.0
20260904222746 100 346 0.0 0.0 0.00 0.00 0.00 54 1017.1
20260904222241 101 297 0.0 2.0 0.00 0.00 0.00 54 1016.9
20260904221741 100 66 0.0 0.0 0.00 0.00 0.00 53 1017.3
20260904221236 101 0 1.0 2.0 0.00 0.00 0.00 49 1017.2
20260904220731 100 353 0.0 3.0 0.00 0.00 0.00 50 1017.2
20260904220225 105 286 0.0 0.0 0.00 0.00 0.00 48 1017.0
20260904215725 105 270 0.0 0.0 0.00 0.00 0.00 48 1017.3
20260904215221 104 270 0.0 0.0 0.00 0.00 0.00 49 1017.3
20260904214716 103 270 0.0 1.0 0.00 0.00 0.00 50 1017.1
20260904214212 103 294 0.0 1.0 0.00 0.00 0.00 50 1017.3
20260904213709 106 286 0.0 1.0 0.00 0.00 0.00 47 1017.4
20260904213207 105 96 0.0 2.0 0.00 0.00 0.00 48 1017.2
20260904212707 101 57 0.0 0.0 0.00 0.00 0.00 53 1017.0
20260904212202 102 325 0.0 4.0 0.00 0.00 0.00 46 1017.2
20260904211701 104 285 0.0 0.0 0.00 0.00 0.00 47 1017.0
20260904211156 102 285 0.0 2.0 0.00 0.00 0.00 50 1017.0
20260904210651 103 270 0.0 0.0 0.00 0.00 0.00 50 1017.1
20260904210147 104 270 2.0 3.0 0.00 0.00 0.00 49 1016.9
20260904205642 102 286 0.0 0.0 0.00 0.00 0.00 50 1017.3
20260904205139 103 286 0.0 2.0 0.00 0.00 0.00 49 1017.2
20260904204634 100 66 0.0 1.0 0.00 0.00 0.00 51 1017.3
20260904204130 103 286 0.0 1.0 0.00 0.00 0.00 51 1017.3
20260904203626 98 81 0.0 0.0 0.00 0.00 0.00 53 1017.4
20260904203122 96 81 0.0 2.0 0.00 0.00 0.00 54 1017.2
20260904202618 97 81 0.0 1.0 0.00 0.00 0.00 53 1017.3
20260904202115 99 290 0.0 0.0 0.00 0.00 0.00 53 1017.5
20260904201614 101 270 0.0 2.0 0.00 0.00 0.00 54 1017.3
20260904201109 97 99 0.0 1.0 0.00 0.00 0.00 53 1017.5
20260904200609 98 264 0.0 3.0 0.00 0.00 0.00 52 1017.5
20260904200104 99 291 0.0 1.0 0.00 0.00 0.00 55 1017.5
20260904195602 99 328 0.0 2.0 0.00 0.00 0.00 53 1017.4
20260904195102 99 285 0.0 0.0 0.00 0.00 0.00 55 1017.6
20260904194556 98 320 0.0 2.0 0.00 0.00 0.00 55 1017.8
20260904194051 97 355 0.0 3.0 0.00 0.00 0.00 51 1018.1
20260904193546 97 349 0.0 3.0 0.00 0.00 0.00 55 1018.2
20260904193042 96 345 0.0 0.0 0.00 0.00 0.00 54 1018.4
20260904192541 96 290 3.0 3.0 0.00 0.00 0.00 55 1018.4
20260904192037 96 339 0.0 4.0 0.00 0.00 0.00 53 1018.4
20260904191534 96 270 2.0 3.0 0.00 0.00 0.00 54 1018.6
20260904191030 96 300 0.0 1.0 0.00 0.00 0.00 56 1018.6
20260904190525 96 315 2.0 5.0 0.00 0.00 0.00 54 1018.7
20260904190022 96 295 2.0 2.0 0.00 0.00 0.00 53 1018.9
20260904185518 96 11 2.0 2.0 0.00 0.00 0.00 56 1018.9
20260904185012 95 15 0.0 0.0 0.00 0.00 0.00 61 1019.0
20260904184507 94 15 0.0 0.0 0.00 0.00 0.00 66 1019.1
20260904184002 92 15 0.0 0.0 0.00 0.00 0.00 68 1019.2
20260904183456 90 15 0.0 0.0 0.00 0.00 0.00 71 1019.3
20260904182952 90 15 0.0 0.0 0.00 0.00 0.00 69 1019.2
20260904182448 91 15 0.0 0.0 0.00 0.00 0.00 67 1019.3
20260904181947 91 15 0.0 0.0 0.00 0.00 0.00 69 1019.2
20260904181443 91 15 0.0 0.0 0.00 0.00 0.00 67 1019.3
20260904180938 92 0 0.0 1.0 0.00 0.00 0.00 66 1019.4
20260904180433 92 0 0.0 2.0 0.00 0.00 0.00 60 1019.2
20260904175932 93 6 1.0 2.0 0.00 0.00 0.00 62 1019.3
20260904175432 95 59 2.0 2.0 0.00 0.00 0.00 61 1019.4
20260904174926 95 0 0.0 0.0 0.00 0.00 0.00 60 1019.4
20260904174421 96 277 0.0 2.0 0.00 0.00 0.00 66 1019.5
20260904173918 94 45 2.0 4.0 0.00 0.00 0.00 64 1019.5
20260904173412 95 270 3.0 4.0 0.00 0.00 0.00 61 1019.5
20260904172909 94 270 2.0 2.0 0.00 0.00 0.00 72 1019.7
20260904172408 94 319 2.0 2.0 0.00 0.00 0.00 67 1019.8
20260904171903 94 5 0.0 4.0 0.00 0.00 0.00 63 1019.7
20260904171358 94 343 2.0 2.0 0.00 0.00 0.00 64 1019.8
20260904170854 93 14 3.0 3.0 0.00 0.00 0.00 62 1020.1
20260904170349 93 292 4.0 4.0 0.00 0.00 0.00 63 1020.1
20260904165844 93 8 0.0 1.0 0.00 0.00 0.00 67 1020.0
20260904165343 92 280 3.0 5.0 0.00 0.00 0.00 63 1019.9
20260904164839 94 215 1.0 2.0 0.00 0.00 0.00 64 1019.9
20260904164338 93 81 0.0 0.0 0.00 0.00 0.00 67 1020.0
20260904163835 92 348 0.0 3.0 0.00 0.00 0.00 67 1020.0
20260904163334 93 0 3.0 3.0 0.00 0.00 0.00 69 1020.3
20260904162833 93 319 0.0 3.0 0.00 0.00 0.00 72 1020.4
20260904162329 93 279 0.0 2.0 0.00 0.00 0.00 73 1020.4
20260904161825 92 186 1.0 2.0 0.00 0.00 0.00 69 1020.5
20260904161325 92 0 2.0 2.0 0.00 0.00 0.00 69 1020.5
20260904160820 92 90 0.0 1.0 0.00 0.00 0.00 73 1020.8
20260904160320 91 29 0.0 1.0 0.00 0.00 0.00 76 1020.9
20260904155815 91 29 0.0 2.0 0.00 0.00 0.00 72 1020.9
20260904155310 92 75 0.0 1.0 0.00 0.00 0.00 73 1020.9
20260904154809 92 352 0.0 1.0 0.00 0.00 0.00 75 1020.7
20260904154304 91 40 0.0 0.0 0.00 0.00 0.00 76 1020.8
20260904153759 90 7 0.0 1.0 0.00 0.00 0.00 76 1020.9
20260904153254 90 302 4.0 4.0 0.00 0.00 0.00 76 1020.9
20260904152751 89 75 1.0 2.0 0.00 0.00 0.00 75 1021.0
20260904152245 90 173 0.0 1.0 0.00 0.00 0.00 74 1021.1
20260904151740 88 74 0.0 2.0 0.00 0.00 0.00 76 1021.0
20260904151239 88 81 0.0 1.0 0.00 0.00 0.00 77 1021.1
20260904150736 86 8 0.0 2.0 0.00 0.00 0.00 77 1021.0
20260904150230 85 29 0.0 2.0 0.00 0.00 0.00 80 1020.8
20260904145728 85 287 0.0 5.0 0.00 0.00 0.00 81 1021.1
20260904145224 85 279 0.0 1.0 0.00 0.00 0.00 81 1021.1
20260904144719 85 246 0.0 2.0 0.00 0.00 0.00 80 1021.1
20260904144215 84 37 0.0 4.0 0.00 0.00 0.00 79 1021.2
20260904143711 84 5 2.0 3.0 0.00 0.00 0.00 80 1021.2
20260904143208 83 300 0.0 3.0 0.00 0.00 0.00 84 1021.0
20260904142704 83 63 0.0 4.0 0.00 0.00 0.00 83 1021.0
20260904142159 83 270 3.0 5.0 0.00 0.00 0.00 83 1020.9
20260904141659 82 282 2.0 5.0 0.00 0.00 0.00 84 1020.9
20260904141155 82 276 0.0 5.0 0.00 0.00 0.00 86 1020.9
20260904140650 81 0 0.0 1.0 0.00 0.00 0.00 88 1020.8
20260904140145 81 337 2.0 2.0 0.00 0.00 0.00 87 1020.9
20260904135644 80 270 2.0 3.0 0.00 0.00 0.00 88 1020.9
20260904135140 80 279 0.0 1.0 0.00 0.00 0.00 90 1020.9
20260904134636 80 352 0.0 1.0 0.00 0.00 0.00 90 1020.9
20260904134135 80 277 4.0 4.0 0.00 0.00 0.00 89 1020.9
20260904133630 79 354 0.0 2.0 0.00 0.00 0.00 92 1020.9
20260904133126 79 342 3.0 3.0 0.00 0.00 0.00 92 1020.9
20260904132620 78 270 0.0 0.0 0.00 0.00 0.00 93 1020.9
20260904132115 78 325 0.0 1.0 0.00 0.00 0.00 92 1020.7
20260904131614 78 303 0.0 2.0 0.00 0.00 0.00 93 1020.8
20260904131110 78 352 0.0 2.0 0.00 0.00 0.00 93 1020.8
20260904130609 77 81 0.0 1.0 0.00 0.00 0.00 94 1020.8
20260904130104 77 337 1.0 2.0 0.00 0.00 0.00 95 1020.8
20260904125601 77 78 0.0 2.0 0.00 0.00 0.00 97 1021.0
20260904125101 76 180 0.0 1.0 0.00 0.00 0.00 99 1020.9
20260904124556 75 349 2.0 2.0 0.00 0.00 0.00 99 1021.2
20260904124051 75 344 3.0 3.0 0.00 0.00 0.00 99 1021.0
20260904123546 75 315 0.0 2.0 0.00 0.00 0.00 99 1021.0
20260904123042 75 0 0.0 0.0 0.00 0.00 0.00 99 1020.9
20260904122542 75 66 0.0 1.0 0.00 0.00 0.00 99 1020.8
20260904122036 74 337 0.0 0.0 0.00 0.00 0.00 99 1020.6
20260904121532 74 15 0.0 0.0 0.00 0.00 0.00 99 1020.7
20260904121028 74 15 0.0 0.0 0.00 0.00 0.00 99 1020.7
20260904120524 74 15 0.0 0.0 0.00 0.00 0.00 99 1021.0
20260904120020 73 0 0.0 0.0 0.00 0.00 0.00 99 1020.9
20260904115515 73 345 0.0 0.0 0.00 0.00 0.00 99 1021.0
20260904115014 73 345 0.0 0.0 0.00 0.00 0.00 99 1020.9
20260904114510 73 345 0.0 0.0 0.00 0.00 0.00 99 1021.0
20260904114005 73 345 0.0 0.0 0.00 0.00 0.00 99 1021.1
20260904113504 72 345 0.0 0.0 0.00 0.00 0.00 99 1020.9
20260904112957 73 345 0.0 0.0 0.00 0.00 0.00 99 1020.8
20260904112453 72 345 0.0 0.0 0.00 0.00 0.00 99 1020.7
20260904111949 72 345 0.0 0.0 0.00 0.00 0.00 99 1020.8
20260904111444 72 345 0.0 0.0 0.00 0.00 0.00 99 1020.5
20260904110941 72 345 0.0 0.0 0.00 0.00 0.00 99 1020.8
20260904110439 72 345 0.0 0.0 0.00 0.00 0.00 99 1020.6
20260904105934 72 345 0.0 0.0 0.00 0.00 0.00 99 1020.6
20260904105429 73 279 0.0 0.0 0.00 0.00 0.00 99 1020.6
20260904104925 73 279 0.0 0.0 0.00 0.00 0.00 99 1020.1
20260904104425 72 279 0.0 0.0 0.00 0.00 0.00 99 1020.1
20260904103921 72 279 0.0 0.0 0.00 0.00 0.00 99 1020.5
20260904103416 73 279 0.0 0.0 0.00 0.00 0.00 99 1020.4
20260904102912 72 279 0.0 0.0 0.00 0.00 0.00 99 1020.1
20260904102407 72 279 0.0 0.0 0.00 0.00 0.00 99 1020.3
20260904101903 73 57 0.0 0.0 0.00 0.00 0.00 99 1019.9
20260904101359 72 331 0.0 0.0 0.00 0.00 0.00 99 1020.4
20260904100854 72 331 0.0 0.0 0.00 0.00 0.00 99 1020.0